Location: Unspecified
(0.0000°N, 0.0000°E)
Time: 14:45:40
(UTC+00:00)

LightSail 2 - Pass Details

Date: 17 August 2019
Orbit: 701 x 732 km, 24.0° (Epoch: 21 August)

Event Time Altitude Azimuth Distance (km) Brightness Sun altitude
Exits shadow 04:25:39 20° 333° (NNW) 1,633 6.9 -23.9°
Maximum altitude 04:28:32 34° 25° (NNE) 1,173 6.5 -23.2°
Drops below altitude 10° 04:33:14 10° 89° (E) 2,204 8.7 -22.1°
Sets 04:35:53 0° 98° (E) 3,131 9.6 -21.4°
